EW6741 Weather Reports


time (UTC)temp
C
wind
direction
speed
KPH
gust
KPH
rain 1hr
cm
rain 24hr
cm
rain mn
cm
humidity
%
barometer
mb
20260905184253 24 139 6.4 9.7 0.00 0.00 0.00 74 1010.1
20260905183753 24 161 3.2 4.8 0.00 0.00 0.00 74 1010.1
20260905183249 25 186 4.8 6.4 0.00 0.00 0.00 73 1010.0
20260905182748 25 107 4.8 6.4 0.00 0.00 0.00 70 1010.1
20260905182247 25 189 3.2 9.7 0.00 0.00 0.00 68 1010.2
20260905181743 25 169 6.4 9.7 0.00 0.00 0.00 72 1010.0
20260905181242 24 125 3.2 6.4 0.00 0.00 0.00 72 1010.3
20260905180737 24 159 4.8 6.4 0.00 0.00 0.00 72 1010.1
20260905180232 24 130 1.6 4.8 0.00 0.00 0.00 73 1010.3
20260905175732 24 123 1.6 6.4 0.00 0.00 0.00 72 1010.1
20260905175227 25 175 6.4 9.7 0.00 0.00 0.00 70 1010.1
20260905174722 25 195 4.8 9.7 0.00 0.00 0.00 72 1010.1
20260905174218 25 116 0.0 3.2 0.00 0.00 0.00 72 1010.3
20260905173714 24 100 1.6 3.2 0.00 0.00 0.00 70 1010.4
20260905173210 25 157 4.8 9.7 0.00 0.00 0.00 68 1010.1
20260905172709 25 178 3.2 4.8 0.00 0.00 0.00 68 1010.1
20260905172209 25 129 1.6 3.2 0.00 0.00 0.00 64 1010.2
20260905171704 26 120 0.0 1.6 0.00 0.00 0.00 63 1010.5
20260905171201 26 131 0.0 0.0 0.00 0.00 0.00 59 1010.4
20260905170658 26 72 0.0 1.6 0.00 0.00 0.00 60 1010.1
20260905170157 26 330 3.2 4.8 0.00 0.00 0.00 60 1010.0
20260905165657 26 34 1.6 3.2 0.00 0.00 0.00 59 1010.2
20260905165153 27 117 1.6 6.4 0.00 0.00 0.00 58 1010.1
20260905164647 27 92 1.6 3.2 0.00 0.00 0.00 57 1010.2
20260905164147 26 325 4.8 6.4 0.00 0.00 0.00 57 1010.2
20260905163643 26 12 3.2 4.8 0.00 0.00 0.00 57 1009.9
20260905163139 26 207 3.2 3.2 0.00 0.00 0.00 60 1010.1
20260905162635 25 325 3.2 6.4 0.00 0.00 0.00 61 1010.4
20260905162135 25 359 3.2 6.4 0.00 0.00 0.00 62 1010.3
20260905161635 26 97 1.6 3.2 0.00 0.00 0.00 59 1010.2
20260905161132 26 341 3.2 6.4 0.00 0.00 0.00 60 1010.1
20260905160627 26 325 4.8 6.4 0.00 0.00 0.00 61 1010.0
20260905160127 26 338 1.6 3.2 0.00 0.00 0.00 64 1010.1
20260905155626 25 225 1.6 9.7 0.00 0.00 0.00 64 1010.2
20260905155126 25 82 1.6 3.2 0.00 0.00 0.00 66 1010.3
20260905154626 25 122 0.0 3.2 0.00 0.00 0.00 67 1010.0
20260905154121 25 93 1.6 9.7 0.00 0.00 0.00 67 1010.1
20260905153617 25 292 1.6 3.2 0.00 0.00 0.00 67 1010.3
20260905153112 25 110 0.0 9.7 0.00 0.00 0.00 68 1010.3
20260905152607 25 310 4.8 6.4 0.00 0.00 0.00 67 1010.4
20260905152102 25 69 0.0 3.2 0.00 0.00 0.00 69 1010.4
20260905151557 25 60 3.2 4.8 0.00 0.00 0.00 68 1010.4
20260905151052 25 91 0.0 4.8 0.00 0.00 0.00 68 1010.3
20260905150548 25 126 1.6 4.8 0.00 0.00 0.00 68 1010.3
20260905150046 24 332 1.6 6.4 0.00 0.00 0.00 68 1010.4
20260905145544 24 1 3.2 11.3 0.00 0.00 0.00 69 1010.6
20260905145044 25 315 3.2 4.8 0.00 0.00 0.00 69 1010.5
20260905144539 25 130 1.6 3.2 0.00 0.00 0.00 70 1010.4
20260905144038 24 27 1.6 4.8 0.00 0.00 0.00 70 1010.2
20260905143537 24 68 6.4 9.7 0.00 0.00 0.00 69 1010.1
20260905143033 24 292 4.8 12.9 0.00 0.00 0.00 69 1010.1
20260905142531 23 69 6.4 9.7 0.00 0.00 0.00 70 1010.3
20260905142027 23 76 1.6 4.8 0.00 0.00 0.00 71 1010.3
20260905141521 23 71 1.6 6.4 0.00 0.00 0.00 71 1010.6
20260905141018 23 242 3.2 4.8 0.00 0.00 0.00 70 1010.5
20260905140512 23 354 1.6 11.3 0.00 0.00 0.00 72 1010.3
20260905140011 23 300 6.4 9.7 0.00 0.00 0.00 72 1010.3
20260905135507 23 298 1.6 4.8 0.00 0.00 0.00 71 1010.6
20260905135001 23 134 0.0 3.2 0.00 0.00 0.00 73 1010.3
20260905134501 22 21 1.6 4.8 0.00 0.00 0.00 74 1010.2
20260905134000 22 139 3.2 4.8 0.00 0.00 0.00 75 1010.6
20260905133456 22 64 1.6 4.8 0.00 0.00 0.00 75 1010.5
20260905132955 22 99 0.0 9.7 0.00 0.00 0.00 73 1010.4
20260905132450 22 133 1.6 6.4 0.00 0.00 0.00 74 1010.6
20260905131945 22 73 4.8 9.7 0.00 0.00 0.00 74 1010.5
20260905131441 23 334 1.6 11.3 0.00 0.00 0.00 73 1010.8
20260905130936 22 119 1.6 3.2 0.00 0.00 0.00 75 1010.6
20260905130435 21 96 3.2 3.2 0.00 0.00 0.00 77 1010.9
20260905125935 21 127 1.6 3.2 0.00 0.00 0.00 78 1010.8
20260905125430 21 285 1.6 9.7 0.00 0.00 0.00 77 1010.6
20260905124926 21 60 0.0 1.6 0.00 0.00 0.00 78 1010.7
20260905124422 21 115 1.6 4.8 0.00 0.00 0.00 79 1010.7
20260905123922 20 121 0.0 3.2 0.00 0.00 0.00 81 1010.8
20260905123419 20 86 0.0 3.2 0.00 0.00 0.00 82 1010.9
20260905122914 20 121 0.0 3.2 0.00 0.00 0.00 82 1010.9
20260905122413 19 124 0.0 1.6 0.00 0.00 0.00 83 1010.8
20260905121909 20 219 1.6 4.8 0.00 0.00 0.00 82 1010.5
20260905121404 20 70 1.6 9.7 0.00 0.00 0.00 82 1010.7
20260905120904 20 12 1.6 4.8 0.00 0.00 0.00 81 1010.6
20260905120403 20 10 0.0 3.2 0.00 0.00 0.00 82 1010.9
20260905115859 20 33 4.8 6.4 0.00 0.00 0.00 82 1010.8
20260905115358 20 54 0.0 1.6 0.00 0.00 0.00 82 1010.7
20260905114853 20 275 1.6 3.2 0.00 0.00 0.00 82 1010.4
20260905114352 19 286 3.2 4.8 0.00 0.00 0.00 83 1010.4
20260905113851 18 127 3.2 4.8 0.00 0.00 0.00 85 1010.2
20260905113347 18 99 3.2 3.2 0.00 0.00 0.00 87 1010.2
20260905112842 18 120 1.6 6.4 0.00 0.00 0.00 88 1010.2
20260905112337 17 101 0.0 0.0 0.00 0.00 0.00 88 1010.1
20260905111832 17 25 0.0 0.0 0.00 0.00 0.00 89 1010.4
20260905111327 17 84 0.0 0.0 0.00 0.00 0.00 89 1010.3
20260905110827 17 46 0.0 0.0 0.00 0.00 0.00 89 1009.9
20260905110326 17 99 0.0 0.0 0.00 0.00 0.00 89 1009.9
20260905105822 17 116 0.0 0.0 0.00 0.00 0.00 89 1009.9
20260905105321 17 98 0.0 0.0 0.00 0.00 0.00 89 1009.9
20260905104815 17 79 0.0 0.0 0.00 0.00 0.00 88 1009.8
20260905104312 17 50 0.0 1.6 0.00 0.00 0.00 88 1009.8
20260905103811 17 118 0.0 1.6 0.00 0.00 0.00 88 1009.9
20260905103306 17 138 1.6 3.2 0.00 0.00 0.00 88 1010.0
20260905102802 17 81 0.0 0.0 0.00 0.00 0.00 88 1010.0
20260905102259 17 89 0.0 1.6 0.00 0.00 0.00 88 1009.7
20260905101758 17 129 0.0 3.2 0.00 0.00 0.00 88 1009.8
20260905101257 17 109 0.0 0.0 0.00 0.00 0.00 88 1009.6
20260905100752 17 103 0.0 0.0 0.00 0.00 0.00 87 1009.5
20260905100248 17 111 0.0 0.0 0.00 0.00 0.00 87 1009.5
20260905095747 17 78 0.0 0.0 0.00 0.00 0.00 87 1009.7
20260905095247 17 111 0.0 1.6 0.00 0.00 0.00 87 1009.6
20260905094741 17 117 0.0 1.6 0.00 0.00 0.00 87 1009.8
20260905094237 17 23 0.0 3.2 0.00 0.00 0.00 86 1009.6
20260905093736 17 357 0.0 1.6 0.00 0.00 0.00 86 1009.4
20260905093232 18 335 1.6 3.2 0.00 0.00 0.00 86 1009.6
20260905092727 18 119 0.0 4.8 0.00 0.00 0.00 86 1009.5
20260905092223 18 117 0.0 1.6 0.00 0.00 0.00 85 1009.4
20260905091722 18 90 0.0 1.6 0.00 0.00 0.00 85 1009.7
20260905091218 18 100 0.0 1.6 0.00 0.00 0.00 85 1009.5
20260905090716 18 113 0.0 1.6 0.00 0.00 0.00 84 1009.5
20260905090213 18 174 1.6 3.2 0.00 0.00 0.00 84 1009.6
20260905085711 18 154 1.6 4.8 0.00 0.00 0.00 84 1009.5
20260905085207 18 337 1.6 3.2 0.00 0.00 0.00 84 1009.4
20260905084706 18 123 1.6 1.6 0.00 0.00 0.00 84 1009.6
20260905084206 18 253 1.6 4.8 0.00 0.00 0.00 84 1009.4
20260905083701 18 91 1.6 3.2 0.00 0.00 0.00 84 1009.4
20260905083157 18 65 1.6 3.2 0.00 0.00 0.00 84 1009.6
20260905082653 18 61 0.0 3.2 0.00 0.00 0.00 83 1009.7
20260905082149 18 42 3.2 3.2 0.00 0.00 0.00 83 1009.6
20260905081649 19 92 0.0 1.6 0.00 0.00 0.00 83 1009.7
20260905081144 19 69 1.6 1.6 0.00 0.00 0.00 83 1009.5
20260905080643 19 17 0.0 3.2 0.00 0.00 0.00 82 1009.9
20260905080143 19 54 0.0 1.6 0.00 0.00 0.00 82 1009.6
20260905075643 20 122 0.0 3.2 0.00 0.00 0.00 81 1009.6
20260905075142 20 113 1.6 3.2 0.00 0.00 0.00 81 1009.6
20260905074641 20 128 0.0 0.0 0.00 0.00 0.00 81 1009.6
20260905074137 20 76 1.6 3.2 0.00 0.00 0.00 80 1009.4
20260905073632 20 111 0.0 1.6 0.00 0.00 0.00 80 1009.5
20260905073128 20 131 0.0 3.2 0.00 0.00 0.00 80 1009.5
20260905072627 20 345 3.2 3.2 0.00 0.00 0.00 80 1009.5
20260905072122 20 2 3.2 4.8 0.00 0.00 0.00 80 1009.5
20260905071619 20 121 1.6 4.8 0.00 0.00 0.00 81 1009.5
20260905071114 20 72 1.6 4.8 0.00 0.00 0.00 81 1009.6
20260905070609 20 59 0.0 3.2 0.00 0.00 0.00 80 1009.6
20260905070105 20 354 3.2 6.4 0.00 0.00 0.00 81 1009.6
20260905065603 20 111 0.0 3.2 0.00 0.00 0.00 81 1009.7
20260905065058 20 29 1.6 9.7 0.00 0.00 0.00 81 1009.4
20260905064559 20 40 3.2 3.2 0.00 0.00 0.00 81 1009.7
20260905064054 20 124 0.0 0.0 0.00 0.00 0.00 81 1009.8
20260905063553 20 119 0.0 1.6 0.00 0.00 0.00 81 1009.8
20260905063050 20 68 0.0 1.6 0.00 0.00 0.00 81 1009.8
20260905062545 20 121 0.0 1.6 0.00 0.00 0.00 81 1009.7
20260905062044 20 114 0.0 3.2 0.00 0.00 0.00 81 1009.7
20260905061540 20 68 1.6 6.4 0.00 0.00 0.00 81 1010.0
20260905061038 20 138 1.6 3.2 0.00 0.00 0.00 80 1010.1
20260905060535 20 109 0.0 1.6 0.00 0.00 0.00 80 1010.1
20260905060030 20 109 1.6 3.2 0.00 0.00 0.00 80 1010.0
20260905055529 20 99 0.0 1.6 0.00 0.00 0.00 79 1010.2
20260905055024 20 63 3.2 3.2 0.00 0.00 0.00 79 1010.2
20260905054520 20 129 3.2 4.8 0.00 0.00 0.00 78 1010.2
20260905054015 20 253 0.0 3.2 0.00 0.00 0.00 78 1010.1
20260905053509 20 129 0.0 3.2 0.00 0.00 0.00 78 1010.2
20260905053005 20 286 3.2 4.8 0.00 0.00 0.00 78 1010.2
20260905052504 20 121 1.6 1.6 0.00 0.00 0.00 78 1010.2
20260905052004 21 112 1.6 3.2 0.00 0.00 0.00 78 1010.5
20260905051459 20 81 1.6 4.8 0.00 0.00 0.00 78 1010.5
20260905050957 20 46 1.6 4.8 0.00 0.00 0.00 78 1010.5
20260905050452 20 34 1.6 4.8 0.00 0.00 0.00 78 1010.5
20260905045948 20 8 1.6 3.2 0.00 0.00 0.00 78 1010.6
20260905045443 20 93 0.0 3.2 0.00 0.00 0.00 78 1010.7
20260905044939 20 107 0.0 1.6 0.00 0.00 0.00 79 1010.9
20260905044433 20 147 1.6 1.6 0.00 0.00 0.00 79 1010.9
20260905043933 21 108 1.6 3.2 0.00 0.00 0.00 79 1010.8
20260905043432 21 108 0.0 4.8 0.00 0.00 0.00 78 1010.8
20260905042927 21 113 1.6 4.8 0.00 0.00 0.00 78 1010.7
20260905042421 21 22 1.6 3.2 0.00 0.00 0.00 78 1010.8
20260905041916 21 316 1.6 6.4 0.00 0.00 0.00 77 1010.9
20260905041413 21 326 3.2 3.2 0.00 0.00 0.00 77 1010.7
20260905040907 21 24 1.6 3.2 0.00 0.00 0.00 77 1010.9
20260905040407 21 16 3.2 4.8 0.00 0.00 0.00 78 1010.8
20260905035906 20 79 1.6 3.2 0.00 0.86 0.86 79 1010.8
20260905035401 20 118 0.0 3.2 0.00 0.86 0.86 82 1010.8
20260905034858 20 106 0.0 0.0 0.00 0.86 0.86 85 1010.7
20260905034353 20 105 0.0 0.0 0.00 0.86 0.86 87 1010.9
20260905033851 20 120 0.0 0.0 0.00 0.86 0.86 88 1010.8
20260905033347 20 117 0.0 0.0 0.00 0.86 0.86 88 1010.7
20260905032846 20 120 0.0 0.0 0.00 0.86 0.86 88 1010.8
20260905032342 20 122 0.0 0.0 0.00 0.86 0.86 88 1010.9
20260905031837 20 121 0.0 0.0 0.00 0.86 0.86 88 1011.0
20260905031333 20 121 0.0 0.0 0.00 0.86 0.86 88 1010.7
20260905030828 20 122 0.0 0.0 0.00 0.86 0.86 88 1010.9
20260905030324 20 120 0.0 0.0 0.00 0.86 0.86 88 1010.6
20260905025822 20 118 0.0 0.0 0.00 0.86 0.86 88 1010.9
20260905025318 20 115 0.0 0.0 0.00 0.86 0.86 87 1011.0
20260905024815 20 119 0.0 0.0 0.00 0.86 0.86 87 1010.8
20260905024310 20 126 0.0 0.0 0.00 0.86 0.86 86 1010.7
20260905023805 20 114 0.0 0.0 0.00 0.86 0.86 86 1010.7
20260905023300 21 111 0.0 0.0 0.00 0.86 0.86 86 1010.7
20260905022759 21 90 0.0 0.0 0.00 0.86 0.86 85 1010.7
20260905022255 21 114 0.0 0.0 0.00 0.86 0.86 85 1010.7
20260905021754 21 115 0.0 0.0 0.00 0.86 0.86 85 1011.0
20260905021249 21 78 0.0 0.0 0.00 0.86 0.86 85 1011.0
20260905020744 21 84 0.0 0.0 0.00 0.86 0.86 85 1011.0
20260905020239 21 99 0.0 0.0 0.00 0.86 0.86 84 1010.9
20260905015738 21 116 0.0 0.0 0.00 0.86 0.86 84 1010.7
20260905015232 21 123 0.0 1.6 0.00 0.86 0.86 84 1010.9
20260905014731 21 113 0.0 1.6 0.00 0.86 0.86 83 1010.5
20260905014227 21 108 0.0 3.2 0.00 0.86 0.86 83 1010.9
20260905013722 21 112 0.0 0.0 0.00 0.86 0.86 83 1010.5
20260905013219 21 70 0.0 1.6 0.00 0.86 0.86 82 1010.8
20260905012714 22 115 0.0 0.0 0.00 0.86 0.86 82 1010.8
20260905012209 22 108 0.0 0.0 0.00 0.86 0.86 81 1010.7
20260905011706 22 95 0.0 0.0 0.00 0.86 0.86 81 1010.8
20260905011201 22 120 0.0 0.0 0.00 0.86 0.86 81 1011.0
20260905010701 22 118 0.0 0.0 0.00 0.86 0.86 81 1010.8
20260905010157 22 106 0.0 0.0 0.00 0.86 0.86 81 1011.0
20260905005653 22 104 0.0 0.0 0.00 0.86 0.86 81 1010.7
20260905005149 22 110 0.0 0.0 0.00 0.86 0.86 81 1010.8
20260905004643 22 116 0.0 0.0 0.00 0.86 0.86 80 1010.9
20260905004138 22 109 0.0 0.0 0.00 0.86 0.86 80 1010.9
20260905003634 22 120 0.0 0.0 0.00 0.86 0.86 79 1010.9
20260905003129 22 128 0.0 0.0 0.00 0.86 0.86 79 1010.9
20260905002625 22 120 0.0 0.0 0.00 0.86 0.86 79 1010.9
20260905002120 22 111 0.0 0.0 0.00 0.86 0.86 79 1010.6
20260905001615 22 123 0.0 0.0 0.00 0.86 0.86 78 1010.8
20260905001114 23 119 0.0 0.0 0.00 0.86 0.86 78 1010.8
20260905000610 23 120 0.0 0.0 0.00 0.86 0.86 77 1010.6
20260905000106 23 123 0.0 0.0 0.00 0.86 0.86 76 1010.6
20260904235606 23 123 0.0 0.0 0.00 0.86 0.86 76 1010.6
20260904235105 23 102 0.0 0.0 0.00 0.86 0.86 75 1010.5
20260904234600 23 112 0.0 0.0 0.00 0.86 0.86 75 1010.4
20260904234056 23 115 0.0 0.0 0.00 0.86 0.86 75 1010.5
20260904233556 24 117 0.0 0.0 0.00 0.86 0.86 74 1010.6
20260904233052 24 113 0.0 0.0 0.00 0.86 0.86 72 1010.4
20260904232548 25 113 0.0 0.0 0.00 0.86 0.86 71 1010.3
20260904232045 25 115 0.0 0.0 0.00 0.86 0.86 70 1010.3
20260904231540 25 113 0.0 0.0 0.00 0.86 0.86 70 1010.5
20260904231035 25 112 0.0 0.0 0.00 0.86 0.86 70 1010.6
20260904230534 25 107 0.0 1.6 0.00 0.86 0.86 69 1010.6
20260904230030 25 129 1.6 3.2 0.00 0.86 0.86 69 1010.4
20260904225527 25 107 1.6 3.2 0.00 0.86 0.86 68 1010.6
20260904225027 25 117 0.0 0.0 0.00 0.86 0.86 68 1010.3
20260904224522 25 104 0.0 1.6 0.00 0.86 0.86 67 1010.6
20260904224017 26 94 0.0 0.0 0.00 0.86 0.86 67 1010.6
20260904223516 26 94 1.6 3.2 0.00 0.86 0.86 66 1010.5
20260904223012 26 28 0.0 0.0 0.00 0.86 0.86 66 1010.6
20260904222507 26 96 0.0 0.0 0.00 0.86 0.86 65 1010.5
20260904222002 26 132 0.0 1.6 0.00 0.86 0.86 65 1010.3
20260904221456 26 125 0.0 0.0 0.00 0.86 0.86 64 1010.4
20260904220952 26 59 1.6 3.2 0.00 0.86 0.86 63 1010.5
20260904220451 26 105 0.0 1.6 0.00 0.86 0.86 63 1010.6
20260904215946 26 100 1.6 6.4 0.00 0.86 0.86 63 1010.5
20260904215441 27 105 3.2 3.2 0.00 0.86 0.86 62 1010.0
20260904214937 27 97 0.0 3.2 0.00 0.86 0.86 61 1010.4
20260904214432 27 45 3.2 4.8 0.00 0.86 0.86 62 1010.4
20260904213927 27 113 0.0 0.0 0.00 0.86 0.86 63 1010.3
20260904213421 27 36 0.0 3.2 0.00 0.86 0.86 62 1010.3
20260904212917 27 4 1.6 4.8 0.00 0.86 0.86 61 1010.3
20260904212416 27 94 0.0 6.4 0.00 0.86 0.86 60 1010.3
20260904211912 27 145 0.0 3.2 0.00 0.86 0.86 60 1010.5
20260904211407 27 197 1.6 4.8 0.00 0.86 0.86 58 1010.4
20260904210902 27 10 3.2 4.8 0.00 0.86 0.86 58 1010.3
20260904210401 27 42 3.2 4.8 0.00 0.86 0.86 59 1010.4
20260904205857 28 107 1.6 6.4 0.00 0.86 0.86 59 1010.4
20260904205353 28 99 1.6 4.8 0.00 0.86 0.86 57 1010.5
20260904204849 27 349 1.6 12.9 0.00 0.86 0.86 57 1010.5
20260904204345 27 137 1.6 3.2 0.00 0.86 0.86 57 1010.5
20260904203841 27 23 3.2 6.4 0.00 0.86 0.86 57 1010.5
20260904203337 28 175 3.2 11.3 0.00 0.86 0.86 55 1010.4
20260904202832 28 127 1.6 6.4 0.00 0.86 0.86 57 1010.3
20260904202329 28 145 3.2 4.8 0.00 0.86 0.86 57 1010.5
20260904201825 28 47 3.2 3.2 0.00 0.86 0.86 56 1010.3
20260904201324 29 12 3.2 9.7 0.00 0.86 0.86 55 1010.6
20260904200820 28 110 1.6 3.2 0.00 0.86 0.86 56 1010.5
20260904200318 29 325 6.4 11.3 0.00 0.86 0.86 54 1010.6
20260904195819 30 307 4.8 9.7 0.00 0.86 0.86 53 1010.4
20260904195317 29 26 3.2 6.4 0.00 0.86 0.86 56 1010.2
20260904194812 29 340 3.2 4.8 0.00 0.86 0.86 55 1010.4
20260904194311 28 151 0.0 0.0 0.00 0.86 0.86 56 1010.4
20260904193807 28 3 3.2 4.8 0.00 0.86 0.86 56 1010.5
20260904193302 28 356 3.2 6.4 0.00 0.86 0.86 54 1010.6
20260904192757 28 346 6.4 9.7 0.00 0.86 0.86 54 1010.5
20260904192252 28 106 3.2 12.9 0.00 0.86 0.86 55 1010.8
20260904191749 28 89 4.8 6.4 0.00 0.86 0.86 54 1010.7
20260904191245 28 351 8.0 16.1 0.00 0.86 0.86 55 1010.8
20260904190742 28 339 6.4 11.3 0.00 0.86 0.86 56 1011.0
20260904190237 27 51 3.2 9.7 0.00 0.86 0.86 58 1011.0
20260904185733 27 22 1.6 3.2 0.00 0.86 0.86 59 1010.8
20260904185228 27 111 3.2 9.7 0.00 0.86 0.86 57 1010.8
20260904184726 27 268 4.8 6.4 0.00 0.86 0.86 56 1010.7